Location: Newark
(41.6500°N, 71.4833°W)
Time: 23:46:48
(UTC+00:00)

N. Korean satellite - Visible Passes

Search period start: 27 January 2021 00:00
Search period end: 06 February 2021 00:00
Orbit: 452 x 502 km, 97.2° (Epoch: 27 January)

Date Brightness Start Highest point End Pass type
(mag) Time Alt. Az. Time Alt. Az. Time Alt. Az.
27 Jan 6.6 10:09:52 10° NNE 10:13:19 73° E 10:16:43 10° S visible
28 Jan 8.3 09:43:35 10° NNE 09:46:40 30° E 09:49:42 10° SSE visible
28 Jan 8.1 11:17:44 10° NNW 11:19:42 15° WNW 11:21:40 10° WSW visible
29 Jan 9.6 09:17:59 10° ENE 09:19:53 14° E 09:21:47 10° SE visible
29 Jan 7.2 10:50:15 10° N 10:53:18 30° WNW 10:56:18 10° SW visible
30 Jan 6.3 10:23:21 10° N 10:26:47 70° WNW 10:30:09 10° SSW visible
30 Jan 10.1 22:33:28 10° WSW 22:35:02 12° W 22:36:38 10° WNW visible
31 Jan 7.4 09:56:50 10° NNE 10:00:09 46° E 10:03:26 10° S visible
01 Feb 9.1 09:30:46 10° NE 09:33:25 21° E 09:36:03 10° SE visible
01 Feb 7.7 11:04:02 10° NNW 11:06:39 20° WNW 11:09:14 10° WSW visible
02 Feb 6.7 10:36:53 10° N 10:40:10 44° WNW 10:43:24 10° SSW visible
03 Feb 6.5 10:10:09 10° NNE 10:13:34 75° ESE 10:16:58 10° S visible
04 Feb 8.3 09:43:48 10° NNE 09:46:52 31° E 09:49:56 10° SSE visible
04 Feb 8.2 11:18:01 10° NNW 11:19:55 14° WNW 11:21:50 10° WSW visible
05 Feb 9.6 09:18:08 10° ENE 09:20:05 14° E 09:22:00 10° SE visible
05 Feb 7.2 10:50:28 10° N 10:53:28 29° WNW 10:56:27 10° SW visible
